| time (UTC) | temp F | wind direction | speed knots | gust knots | rain 1hr in | rain 24hr in | rain mn in | humidity % | barometer mb |
| 20260906010502 | 53 | 225 | 0.0 | 0.0 | 0.00 | 0.00 | 0.16 | 88 | 1010.5 |
| 20260906005227 | 53 | 247 | 0.0 | 0.0 | 0.00 | 0.00 | 0.16 | 88 | 1010.4 |
| 20260906004226 | 53 | 292 | 0.0 | 0.0 | 0.00 | 0.00 | 0.16 | 88 | 1010.4 |
| 20260906003725 | 53 | 270 | 0.0 | 0.0 | 0.00 | 0.00 | 0.16 | 88 | 1010.5 |
| 20260906003223 | 53 | 247 | 0.0 | 0.0 | 0.00 | 0.00 | 0.16 | 88 | 1010.5 |
| 20260906002722 | 53 | 270 | 0.0 | 0.0 | 0.00 | 0.00 | 0.16 | 88 | 1010.4 |
| 20260906002222 | 53 | 225 | 0.0 | 0.0 | 0.00 | 0.00 | 0.16 | 88 | 1010.5 |
| 20260906001721 | 53 | 247 | 0.0 | 0.0 | 0.00 | 0.00 | 0.16 | 88 | 1010.3 |
| 20260906001220 | 53 | 292 | 0.0 | 0.0 | 0.00 | 0.00 | 0.16 | 88 | 1010.3 |
| 20260906000719 | 53 | 247 | 0.0 | 0.0 | 0.00 | 0.00 | 0.16 | 88 | 1010.3 |
| 20260906000219 | 53 | 247 | 0.0 | 0.0 | 0.00 | 0.00 | 0.16 | 88 | 1010.3 |
| 20260905235717 | 53 | 247 | 0.0 | 0.0 | 0.00 | 0.00 | 0.16 | 88 | 1010.4 |
| 20260905235216 | 53 | 247 | 0.0 | 0.0 | 0.00 | 0.00 | 0.16 | 88 | 1010.4 |
| 20260905234716 | 53 | 315 | 0.0 | 0.0 | 0.00 | 0.00 | 0.16 | 88 | 1010.4 |
| 20260905234215 | 53 | 247 | 0.0 | 0.0 | 0.00 | 0.00 | 0.16 | 88 | 1010.4 |
| 20260905233714 | 53 | 270 | 0.0 | 0.0 | 0.00 | 0.00 | 0.16 | 88 | 1010.3 |
| 20260905233212 | 53 | 292 | 0.0 | 0.0 | 0.00 | 0.00 | 0.16 | 88 | 1010.2 |
| 20260905232712 | 53 | 292 | 0.0 | 0.0 | 0.00 | 0.00 | 0.16 | 88 | 1010.3 |
| 20260905232211 | 53 | 225 | 0.0 | 0.0 | 0.00 | 0.00 | 0.16 | 88 | 1010.3 |
| 20260905231209 | 53 | 270 | 0.0 | 0.0 | 0.00 | 0.00 | 0.16 | 87 | 1010.2 |
| 20260905230312 | 53 | 247 | 0.0 | 0.0 | 0.00 | 0.00 | 0.16 | 87 | 1010.3 |
| 20260905225811 | 53 | 225 | 0.0 | 0.0 | 0.00 | 0.00 | 0.16 | 87 | 1010.1 |
| 20260905225310 | 53 | 202 | 0.0 | 0.0 | 0.00 | 0.00 | 0.16 | 87 | 1010.2 |
| 20260905224809 | 53 | 247 | 0.0 | 0.0 | 0.00 | 0.00 | 0.16 | 87 | 1010.2 |
| 20260905224309 | 53 | 270 | 0.0 | 0.0 | 0.00 | 0.00 | 0.16 | 87 | 1010.2 |
| 20260905223808 | 53 | 180 | 0.0 | 0.0 | 0.00 | 0.00 | 0.16 | 87 | 1010.3 |
| 20260905223307 | 53 | 315 | 0.0 | 0.0 | 0.00 | 0.00 | 0.16 | 87 | 1010.3 |
| 20260905222805 | 54 | 247 | 1.7 | 0.0 | 0.00 | 0.00 | 0.16 | 87 | 1010.2 |
| 20260905222306 | 54 | 247 | 0.0 | 0.0 | 0.00 | 0.00 | 0.16 | 87 | 1010.2 |
| 20260905221804 | 54 | 247 | 0.0 | 0.0 | 0.00 | 0.00 | 0.16 | 87 | 1010.2 |
| 20260905221303 | 54 | 270 | 0.0 | 0.0 | 0.00 | 0.00 | 0.16 | 86 | 1010.2 |
| 20260905220802 | 54 | 225 | 0.0 | 0.0 | 0.00 | 0.00 | 0.16 | 86 | 1010.1 |
| 20260905220301 | 54 | 225 | 0.0 | 0.0 | 0.00 | 0.00 | 0.16 | 86 | 1010.2 |
| 20260905215800 | 54 | 270 | 0.0 | 0.0 | 0.00 | 0.00 | 0.16 | 86 | 1010.2 |
| 20260905215259 | 54 | 270 | 0.0 | 0.0 | 0.00 | 0.00 | 0.16 | 86 | 1010.3 |
| 20260905214759 | 53 | 247 | 0.0 | 0.0 | 0.00 | 0.00 | 0.16 | 87 | 1010.2 |
| 20260905214258 | 53 | 225 | 0.0 | 0.0 | 0.00 | 0.00 | 0.16 | 87 | 1010.1 |
| 20260905213757 | 53 | 225 | 0.0 | 0.0 | 0.00 | 0.00 | 0.16 | 87 | 1010.3 |
| 20260905213256 | 53 | 247 | 0.0 | 0.0 | 0.00 | 0.00 | 0.16 | 87 | 1010.2 |
| 20260905212755 | 53 | 315 | 0.0 | 0.0 | 0.00 | 0.00 | 0.16 | 87 | 1010.1 |
| 20260905212046 | 53 | 247 | 0.0 | 0.0 | 0.00 | 0.00 | 0.16 | 87 | 1010.0 |
| 20260905211417 | 53 | 247 | 0.0 | 0.0 | 0.00 | 0.00 | 0.16 | 87 | 1010.0 |
| 20260905210916 | 53 | 247 | 0.0 | 0.0 | 0.00 | 0.00 | 0.16 | 87 | 1010.0 |
| 20260905210415 | 53 | 247 | 0.0 | 0.0 | 0.00 | 0.00 | 0.16 | 87 | 1010.0 |
| 20260905205914 | 53 | 292 | 0.0 | 0.0 | 0.00 | 0.00 | 0.16 | 87 | 1010.1 |
| 20260905205413 | 53 | 247 | 0.0 | 0.0 | 0.00 | 0.00 | 0.16 | 87 | 1010.1 |
| 20260905204912 | 53 | 247 | 0.0 | 0.0 | 0.00 | 0.00 | 0.16 | 87 | 1010.1 |
| 20260905204412 | 53 | 270 | 0.0 | 0.0 | 0.00 | 0.00 | 0.16 | 87 | 1010.1 |
| 20260905203911 | 53 | 270 | 0.0 | 0.0 | 0.00 | 0.00 | 0.16 | 87 | 1010.0 |
| 20260905203410 | 53 | 225 | 0.0 | 0.0 | 0.00 | 0.00 | 0.16 | 87 | 1010.0 |
| 20260905202909 | 53 | 247 | 0.0 | 0.0 | 0.00 | 0.00 | 0.16 | 87 | 1010.0 |
| 20260905202408 | 53 | 247 | 0.0 | 0.0 | 0.00 | 0.00 | 0.16 | 87 | 1010.1 |
| 20260905201907 | 53 | 247 | 0.0 | 0.0 | 0.00 | 0.00 | 0.16 | 87 | 1010.0 |
| 20260905201406 | 53 | 247 | 0.0 | 0.0 | 0.00 | 0.00 | 0.16 | 87 | 1010.0 |
| 20260905200905 | 53 | 315 | 0.0 | 0.0 | 0.00 | 0.00 | 0.16 | 87 | 1010.2 |
| 20260905200404 | 53 | 225 | 0.0 | 0.0 | 0.00 | 0.00 | 0.16 | 87 | 1010.2 |
| 20260905195903 | 53 | 247 | 0.0 | 0.0 | 0.00 | 0.00 | 0.16 | 87 | 1010.2 |
| 20260905195402 | 53 | 225 | 0.0 | 0.0 | 0.00 | 0.00 | 0.16 | 87 | 1010.2 |
| 20260905194902 | 53 | 225 | 1.7 | 0.0 | 0.00 | 0.00 | 0.16 | 87 | 1010.3 |
| 20260905194401 | 53 | 247 | 0.0 | 0.0 | 0.00 | 0.00 | 0.16 | 87 | 1010.3 |
| 20260905193422 | 53 | 247 | 0.0 | 0.0 | 0.00 | 0.00 | 0.16 | 87 | 1010.4 |
| 20260905192921 | 53 | 247 | 0.0 | 0.0 | 0.00 | 0.00 | 0.16 | 87 | 1010.3 |
| 20260905192420 | 53 | 247 | 0.0 | 0.0 | 0.00 | 0.00 | 0.16 | 87 | 1010.3 |
| 20260905191919 | 53 | 247 | 0.0 | 0.0 | 0.00 | 0.00 | 0.16 | 87 | 1010.3 |
| 20260905191418 | 53 | 247 | 0.0 | 0.0 | 0.00 | 0.00 | 0.16 | 87 | 1010.3 |
| 20260905190917 | 53 | 247 | 0.0 | 0.0 | 0.00 | 0.00 | 0.16 | 87 | 1010.4 |
| 20260905190416 | 53 | 270 | 0.0 | 0.0 | 0.00 | 0.00 | 0.16 | 87 | 1010.4 |
| 20260905185915 | 53 | 247 | 0.0 | 0.0 | 0.00 | 0.00 | 0.16 | 87 | 1010.5 |
| 20260905185414 | 53 | 247 | 0.0 | 0.0 | 0.00 | 0.00 | 0.16 | 87 | 1010.5 |
| 20260905184913 | 53 | 247 | 0.0 | 0.0 | 0.00 | 0.00 | 0.16 | 87 | 1010.5 |
| 20260905184413 | 53 | 202 | 0.0 | 0.0 | 0.00 | 0.00 | 0.16 | 87 | 1010.5 |
| 20260905183912 | 53 | 247 | 0.0 | 0.0 | 0.00 | 0.00 | 0.16 | 87 | 1010.6 |
| 20260905183411 | 53 | 225 | 0.0 | 0.0 | 0.00 | 0.00 | 0.16 | 87 | 1010.5 |
| 20260905182910 | 53 | 292 | 0.0 | 0.0 | 0.00 | 0.00 | 0.16 | 87 | 1010.6 |
| 20260905182409 | 53 | 247 | 0.0 | 0.0 | 0.00 | 0.00 | 0.16 | 86 | 1010.4 |
| 20260905181908 | 53 | 270 | 0.0 | 0.0 | 0.00 | 0.00 | 0.16 | 86 | 1010.5 |
| 20260905181407 | 53 | 247 | 0.0 | 0.0 | 0.00 | 0.00 | 0.16 | 87 | 1010.6 |
| 20260905180906 | 53 | 247 | 0.0 | 0.0 | 0.00 | 0.00 | 0.16 | 86 | 1010.6 |
| 20260905180405 | 53 | 225 | 0.0 | 0.0 | 0.00 | 0.00 | 0.16 | 86 | 1010.8 |
| 20260905175905 | 53 | 292 | 0.0 | 0.0 | 0.00 | 0.00 | 0.16 | 86 | 1010.8 |
| 20260905174829 | 53 | 247 | 0.0 | 0.0 | 0.00 | 0.00 | 0.16 | 86 | 1010.7 |
| 20260905174329 | 53 | 247 | 0.0 | 0.0 | 0.00 | 0.00 | 0.16 | 86 | 1010.6 |
| 20260905173828 | 53 | 270 | 0.0 | 0.0 | 0.00 | 0.00 | 0.16 | 86 | 1010.5 |
| 20260905173327 | 53 | 270 | 0.0 | 0.0 | 0.00 | 0.00 | 0.16 | 86 | 1010.5 |
| 20260905172826 | 53 | 315 | 0.0 | 0.0 | 0.00 | 0.00 | 0.16 | 86 | 1010.4 |
| 20260905172325 | 53 | 270 | 0.0 | 0.0 | 0.00 | 0.00 | 0.16 | 86 | 1010.4 |
| 20260905171824 | 53 | 247 | 0.0 | 0.0 | 0.00 | 0.00 | 0.16 | 86 | 1010.4 |
| 20260905171323 | 53 | 225 | 0.0 | 0.0 | 0.00 | 0.00 | 0.16 | 86 | 1010.5 |
| 20260905170822 | 53 | 247 | 0.0 | 0.0 | 0.00 | 0.00 | 0.16 | 85 | 1010.6 |
| 20260905170321 | 53 | 247 | 0.0 | 0.0 | 0.00 | 0.00 | 0.16 | 85 | 1010.5 |
| 20260905165820 | 53 | 247 | 0.0 | 0.0 | 0.00 | 0.00 | 0.16 | 85 | 1010.4 |
| 20260905165319 | 53 | 270 | 0.0 | 0.0 | 0.00 | 0.00 | 0.16 | 85 | 1010.4 |
| 20260905164819 | 53 | 225 | 0.0 | 0.0 | 0.00 | 0.00 | 0.16 | 85 | 1010.6 |
| 20260905164318 | 53 | 292 | 0.0 | 0.0 | 0.00 | 0.00 | 0.16 | 84 | 1010.7 |
| 20260905163817 | 53 | 225 | 0.0 | 0.0 | 0.00 | 0.00 | 0.16 | 84 | 1010.6 |
| 20260905163316 | 53 | 270 | 0.0 | 0.0 | 0.00 | 0.00 | 0.16 | 84 | 1010.5 |
| 20260905162815 | 53 | 247 | 0.0 | 0.0 | 0.00 | 0.00 | 0.16 | 84 | 1010.5 |
| 20260905162314 | 53 | 225 | 0.0 | 0.0 | 0.00 | 0.00 | 0.14 | 84 | 1010.4 |
| 20260905161719 | 53 | 247 | 0.0 | 0.0 | 0.00 | 0.00 | 0.14 | 83 | 1010.3 |
| 20260905161218 | 53 | 225 | 0.0 | 0.0 | 0.00 | 0.00 | 0.12 | 82 | 1010.2 |
| 20260905160308 | 53 | 135 | 0.0 | 0.0 | 0.00 | 0.00 | 0.12 | 82 | 1010.5 |
| 20260905155806 | 54 | 135 | 0.0 | 0.0 | 0.00 | 0.00 | 0.12 | 81 | 1010.6 |
| 20260905155306 | 54 | 135 | 0.0 | 0.0 | 0.00 | 0.00 | 0.09 | 81 | 1010.6 |
| 20260905154804 | 54 | 135 | 0.0 | 0.0 | 0.00 | 0.00 | 0.09 | 80 | 1010.4 |
| 20260905154304 | 55 | 135 | 0.0 | 0.0 | 0.00 | 0.00 | 0.09 | 80 | 1010.2 |
| 20260905153803 | 56 | 135 | 0.0 | 0.0 | 0.00 | 0.00 | 0.07 | 79 | 1010.2 |
| 20260905153302 | 57 | 135 | 0.0 | 0.0 | 0.00 | 0.00 | 0.07 | 79 | 1010.2 |
| 20260905152801 | 58 | 135 | 0.0 | 0.0 | 0.00 | 0.00 | 0.05 | 78 | 1010.1 |
| 20260905152300 | 59 | 135 | 0.0 | 0.0 | 0.00 | 0.00 | 0.03 | 76 | 1010.1 |
| 20260905151759 | 60 | 135 | 0.0 | 0.0 | 0.00 | 0.00 | 0.00 | 75 | 1009.9 |
| 20260905151258 | 60 | 135 | 0.0 | 0.0 | 0.00 | 0.00 | 0.00 | 74 | 1009.2 |
| 20260905150757 | 60 | 135 | 0.0 | 0.0 | 0.00 | 0.00 | 0.00 | 75 | 1009.2 |
| 20260905150256 | 60 | 135 | 0.0 | 0.0 | 0.00 | 0.00 | 0.00 | 76 | 1009.3 |
| 20260905145755 | 59 | 135 | 0.0 | 0.0 | 0.00 | 0.00 | 0.00 | 76 | 1009.2 |
| 20260905145254 | 59 | 135 | 0.0 | 0.0 | 0.00 | 0.00 | 0.00 | 76 | 1009.2 |
| 20260905144754 | 59 | 135 | 0.0 | 0.0 | 0.00 | 0.00 | 0.00 | 77 | 1009.2 |
| 20260905144253 | 59 | 135 | 0.0 | 0.0 | 0.00 | 0.00 | 0.00 | 77 | 1009.0 |
| 20260905143752 | 57 | 135 | 0.0 | 0.0 | 0.00 | 0.00 | 0.00 | 77 | 1009.2 |
| 20260905143139 | 57 | 135 | 0.0 | 0.0 | 0.00 | 0.00 | 0.00 | 78 | 1009.2 |
| 20260905142348 | 56 | 135 | 0.0 | 0.0 | 0.00 | 0.00 | 0.00 | 77 | 1009.2 |
| 20260905141847 | 56 | 135 | 0.0 | 0.0 | 0.00 | 0.00 | 0.00 | 76 | 1009.2 |
| 20260905141346 | 56 | 135 | 0.0 | 0.0 | 0.00 | 0.00 | 0.00 | 76 | 1009.2 |
| 20260905140845 | 57 | 135 | 0.0 | 0.0 | 0.00 | 0.00 | 0.00 | 75 | 1009.3 |
| 20260905140344 | 57 | 135 | 0.0 | 0.0 | 0.00 | 0.00 | 0.00 | 74 | 1009.3 |
| 20260905135843 | 58 | 135 | 0.0 | 0.0 | 0.00 | 0.00 | 0.00 | 72 | 1009.4 |
| 20260905135342 | 59 | 135 | 0.0 | 0.0 | 0.00 | 0.00 | 0.00 | 69 | 1009.5 |
| 20260905134841 | 63 | 135 | 0.0 | 0.0 | 0.00 | 0.00 | 0.00 | 64 | 1009.6 |
| 20260905134341 | 65 | 157 | 0.0 | 0.0 | 0.00 | 0.00 | 0.00 | 57 | 1009.2 |
| 20260905133840 | 66 | 157 | 0.0 | 0.0 | 0.00 | 0.00 | 0.00 | 56 | 1008.6 |
| 20260905133339 | 65 | 0 | 0.0 | 0.0 | 0.00 | 0.00 | 0.00 | 55 | 1008.5 |
| 20260905132838 | 66 | 0 | 0.0 | 0.0 | 0.00 | 0.00 | 0.00 | 53 | 1008.5 |
| 20260905132337 | 67 | 112 | 0.0 | 0.0 | 0.00 | 0.00 | 0.00 | 52 | 1008.5 |
| 20260905131836 | 68 | 135 | 0.0 | 0.0 | 0.00 | 0.00 | 0.00 | 50 | 1008.4 |
| 20260905131335 | 70 | 135 | 0.0 | 0.0 | 0.00 | 0.00 | 0.00 | 49 | 1008.3 |
| 20260905130835 | 72 | 112 | 0.0 | 0.0 | 0.00 | 0.00 | 0.00 | 47 | 1008.3 |
| 20260905130334 | 73 | 112 | 1.7 | 0.0 | 0.00 | 0.00 | 0.00 | 47 | 1008.2 |
| 20260905125832 | 74 | 270 | 1.7 | 0.0 | 0.00 | 0.00 | 0.00 | 47 | 1008.2 |
| 20260905125331 | 73 | 135 | 0.0 | 0.0 | 0.00 | 0.00 | 0.00 | 49 | 1008.2 |
| 20260905124831 | 69 | 135 | 0.0 | 0.0 | 0.00 | 0.00 | 0.00 | 54 | 1008.1 |
| 20260905123740 | 69 | 157 | 0.0 | 0.0 | 0.00 | 0.00 | 0.00 | 58 | 1008.2 |
| 20260905123239 | 68 | 337 | 0.0 | 0.0 | 0.00 | 0.00 | 0.00 | 60 | 1008.3 |
| 20260905122738 | 66 | 112 | 0.0 | 0.0 | 0.00 | 0.00 | 0.00 | 65 | 1008.4 |
| 20260905122237 | 66 | 112 | 0.0 | 0.0 | 0.00 | 0.00 | 0.00 | 65 | 1008.4 |
| 20260905121736 | 66 | 112 | 0.0 | 0.0 | 0.00 | 0.00 | 0.00 | 65 | 1008.2 |
| 20260905121235 | 67 | 112 | 0.0 | 0.0 | 0.00 | 0.00 | 0.00 | 64 | 1008.3 |
| 20260905120734 | 67 | 112 | 0.0 | 0.0 | 0.00 | 0.00 | 0.00 | 65 | 1008.3 |
| 20260905120234 | 65 | 112 | 0.0 | 0.0 | 0.00 | 0.00 | 0.00 | 68 | 1008.3 |
| 20260905115732 | 62 | 112 | 0.0 | 0.0 | 0.00 | 0.00 | 0.09 | 70 | 1008.3 |
| 20260905115231 | 62 | 112 | 0.0 | 0.0 | 0.00 | 0.00 | 0.09 | 70 | 1008.4 |
| 20260905114230 | 62 | 112 | 0.0 | 0.0 | 0.00 | 0.00 | 0.09 | 68 | 1008.4 |
| 20260905113729 | 63 | 112 | 0.0 | 0.0 | 0.00 | 0.00 | 0.09 | 64 | 1008.4 |
| 20260905113228 | 65 | 112 | 0.0 | 0.0 | 0.00 | 0.00 | 0.09 | 60 | 1008.2 |
| 20260905112727 | 70 | 225 | 1.7 | 0.0 | 0.00 | 0.00 | 0.09 | 50 | 1008.1 |
| 20260905112226 | 72 | 135 | 0.0 | 0.0 | 0.00 | 0.00 | 0.09 | 49 | 1007.7 |
| 20260905111725 | 72 | 22 | 0.0 | 0.0 | 0.00 | 0.00 | 0.09 | 51 | 1007.7 |
| 20260905111224 | 70 | 22 | 0.0 | 0.0 | 0.00 | 0.00 | 0.09 | 51 | 1007.7 |
| 20260905110724 | 71 | 0 | 1.7 | 0.0 | 0.00 | 0.00 | 0.09 | 51 | 1007.6 |
| 20260905110153 | 70 | 0 | 0.0 | 0.0 | 0.00 | 0.00 | 0.09 | 51 | 1007.6 |
| 20260905105521 | 69 | 45 | 0.0 | 0.0 | 0.00 | 0.00 | 0.09 | 53 | 1007.4 |
| 20260905104718 | 69 | 45 | 0.0 | 0.0 | 0.00 | 0.00 | 0.09 | 53 | 1007.6 |
| 20260905104218 | 69 | 45 | 0.0 | 0.0 | 0.00 | 0.00 | 0.09 | 52 | 1007.5 |
| 20260905103717 | 70 | 45 | 1.7 | 0.0 | 0.00 | 0.00 | 0.09 | 52 | 1007.4 |
| 20260905103216 | 70 | 45 | 0.0 | 0.0 | 0.00 | 0.00 | 0.09 | 52 | 1007.4 |
| 20260905102715 | 70 | 45 | 0.0 | 0.0 | 0.00 | 0.00 | 0.09 | 53 | 1007.2 |
| 20260905102214 | 70 | 112 | 0.0 | 0.0 | 0.00 | 0.00 | 0.09 | 53 | 1007.3 |
| 20260905101713 | 70 | 67 | 0.0 | 0.0 | 0.00 | 0.00 | 0.09 | 55 | 1007.4 |
| 20260905101212 | 68 | 67 | 0.0 | 0.0 | 0.00 | 0.00 | 0.09 | 60 | 1007.5 |
| 20260905100712 | 65 | 180 | 0.0 | 0.0 | 0.00 | 0.00 | 0.09 | 62 | 1007.6 |
| 20260905095710 | 64 | 157 | 0.0 | 0.0 | 0.00 | 0.00 | 0.09 | 62 | 1007.5 |
| 20260905095208 | 64 | 270 | 0.0 | 0.0 | 0.00 | 0.00 | 0.09 | 62 | 1007.6 |
| 20260905094708 | 64 | 0 | 0.0 | 0.0 | 0.00 | 0.00 | 0.09 | 61 | 1007.7 |
| 20260905094207 | 65 | 270 | 0.0 | 0.0 | 0.00 | 0.00 | 0.09 | 59 | 1007.7 |
| 20260905093706 | 65 | 135 | 0.0 | 0.0 | 0.00 | 0.00 | 0.09 | 59 | 1007.6 |
| 20260905093205 | 66 | 112 | 0.0 | 0.0 | 0.00 | 0.00 | 0.09 | 58 | 1007.5 |
| 20260905092704 | 67 | 112 | 2.6 | 0.0 | 0.00 | 0.00 | 0.09 | 58 | 1007.5 |
| 20260905092203 | 66 | 22 | 3.5 | 0.0 | 0.00 | 0.00 | 0.09 | 61 | 1007.3 |
| 20260905091650 | 64 | 135 | 0.0 | 0.0 | 0.00 | 0.00 | 0.09 | 64 | 1007.3 |
| 20260905090835 | 64 | 135 | 0.0 | 0.0 | 0.00 | 0.00 | 0.09 | 64 | 1007.1 |
| 20260905090335 | 64 | 112 | 0.0 | 0.0 | 0.00 | 0.00 | 0.09 | 63 | 1007.2 |
| 20260905085834 | 64 | 112 | 0.0 | 0.0 | 0.00 | 0.00 | 0.09 | 63 | 1007.1 |
| 20260905085333 | 65 | 0 | 0.9 | 0.0 | 0.00 | 0.00 | 0.09 | 62 | 1006.9 |
| 20260905084831 | 65 | 180 | 0.0 | 0.0 | 0.00 | 0.00 | 0.09 | 62 | 1006.9 |
| 20260905084331 | 65 | 135 | 0.0 | 0.0 | 0.00 | 0.00 | 0.09 | 63 | 1007.0 |
| 20260905083830 | 64 | 157 | 0.0 | 0.0 | 0.00 | 0.00 | 0.09 | 64 | 1007.0 |
| 20260905083329 | 63 | 157 | 0.0 | 0.0 | 0.00 | 0.00 | 0.09 | 64 | 1006.8 |
| 20260905082828 | 63 | 337 | 0.0 | 0.0 | 0.00 | 0.00 | 0.09 | 63 | 1006.8 |
| 20260905082327 | 64 | 135 | 0.0 | 0.0 | 0.00 | 0.00 | 0.09 | 62 | 1006.8 |
| 20260905081826 | 65 | 157 | 0.0 | 0.0 | 0.00 | 0.00 | 0.09 | 60 | 1006.8 |
| 20260905081325 | 66 | 292 | 6.1 | 0.0 | 0.00 | 0.00 | 0.09 | 59 | 1006.8 |
| 20260905080825 | 68 | 0 | 0.0 | 0.0 | 0.00 | 0.00 | 0.09 | 56 | 1006.7 |
| 20260905080324 | 70 | 180 | 0.0 | 0.0 | 0.00 | 0.00 | 0.09 | 54 | 1006.5 |
| 20260905075823 | 71 | 135 | 0.0 | 0.0 | 0.00 | 0.00 | 0.09 | 54 | 1006.4 |
| 20260905075322 | 71 | 22 | 2.6 | 0.0 | 0.00 | 0.00 | 0.09 | 54 | 1006.4 |
| 20260905074821 | 71 | 112 | 0.0 | 0.0 | 0.00 | 0.00 | 0.09 | 55 | 1006.2 |
| 20260905074320 | 70 | 0 | 0.0 | 0.0 | 0.00 | 0.00 | 0.09 | 57 | 1006.2 |
| 20260905073819 | 68 | 0 | 0.0 | 0.0 | 0.00 | 0.00 | 0.09 | 60 | 1006.0 |
| 20260905073318 | 66 | 112 | 0.0 | 0.0 | 0.00 | 0.00 | 0.09 | 62 | 1005.8 |
| 20260905072529 | 64 | 337 | 0.0 | 0.0 | 0.00 | 0.00 | 0.09 | 64 | 1005.8 |
| 20260905071844 | 64 | 135 | 0.0 | 0.0 | 0.00 | 0.00 | 0.09 | 65 | 1005.8 |
| 20260905071343 | 63 | 337 | 0.0 | 0.0 | 0.00 | 0.00 | 0.09 | 65 | 1005.7 |
| 20260905070842 | 63 | 135 | 0.0 | 0.0 | 0.00 | 0.00 | 0.09 | 65 | 1005.8 |
| 20260905070342 | 63 | 112 | 0.0 | 0.0 | 0.00 | 0.00 | 0.09 | 65 | 1005.7 |
| 20260905065841 | 63 | 112 | 0.0 | 0.0 | 0.00 | 0.00 | 0.09 | 65 | 1005.7 |
| 20260905065340 | 63 | 157 | 0.0 | 0.0 | 0.00 | 0.00 | 0.09 | 64 | 1005.6 |
| 20260905064839 | 63 | 157 | 0.0 | 0.0 | 0.00 | 0.00 | 0.09 | 64 | 1005.5 |
| 20260905064338 | 64 | 157 | 0.0 | 0.0 | 0.00 | 0.00 | 0.09 | 64 | 1005.3 |
| 20260905063837 | 64 | 157 | 0.0 | 0.0 | 0.00 | 0.00 | 0.09 | 64 | 1005.2 |
| 20260905063336 | 63 | 0 | 0.0 | 0.0 | 0.00 | 0.00 | 0.09 | 64 | 1004.9 |
| 20260905062835 | 64 | 22 | 0.0 | 0.0 | 0.00 | 0.00 | 0.09 | 64 | 1004.9 |
| 20260905062334 | 65 | 337 | 0.0 | 0.0 | 0.00 | 0.00 | 0.09 | 62 | 1004.8 |
| 20260905061833 | 66 | 337 | 0.0 | 0.0 | 0.00 | 0.00 | 0.09 | 61 | 1004.7 |
| 20260905061332 | 67 | 90 | 0.0 | 0.0 | 0.00 | 0.00 | 0.09 | 61 | 1004.8 |
| 20260905060832 | 68 | 292 | 4.3 | 0.0 | 0.00 | 0.00 | 0.09 | 63 | 1004.7 |
| 20260905060331 | 67 | 0 | 0.9 | 0.0 | 0.00 | 0.00 | 0.09 | 66 | 1004.7 |
| 20260905055830 | 65 | 67 | 0.0 | 0.0 | 0.00 | 0.00 | 0.09 | 70 | 1004.6 |
| 20260905055329 | 63 | 0 | 0.0 | 0.0 | 0.00 | 0.00 | 0.09 | 72 | 1004.3 |
| 20260905054658 | 65 | 247 | 5.2 | 0.0 | 0.00 | 0.00 | 0.09 | 70 | 1004.1 |
| 20260905053659 | 66 | 157 | 0.0 | 0.0 | 0.00 | 0.00 | 0.09 | 72 | 1003.9 |
| 20260905053158 | 63 | 0 | 0.0 | 0.0 | 0.00 | 0.00 | 0.09 | 75 | 1003.9 |
| 20260905052657 | 62 | 180 | 2.6 | 0.0 | 0.00 | 0.00 | 0.09 | 75 | 1003.9 |
| 20260905052156 | 61 | 157 | 0.0 | 0.0 | 0.00 | 0.00 | 0.09 | 75 | 1003.8 |
| 20260905051655 | 61 | 0 | 0.0 | 0.0 | 0.00 | 0.00 | 0.09 | 76 | 1003.7 |
| 20260905051154 | 60 | 157 | 0.0 | 0.0 | 0.00 | 0.00 | 0.09 | 76 | 1003.7 |
| 20260905050654 | 60 | 157 | 0.0 | 0.0 | 0.00 | 0.00 | 0.09 | 76 | 1003.7 |
| 20260905050153 | 61 | 157 | 0.0 | 0.0 | 0.00 | 0.00 | 0.09 | 77 | 1003.5 |
| 20260905045652 | 61 | 337 | 0.0 | 0.0 | 0.00 | 0.00 | 0.09 | 77 | 1003.3 |
| 20260905045151 | 61 | 315 | 0.0 | 0.0 | 0.00 | 0.00 | 0.09 | 77 | 1003.4 |
| 20260905044650 | 61 | 112 | 0.0 | 0.0 | 0.00 | 0.00 | 0.09 | 78 | 1003.1 |
| 20260905044149 | 61 | 112 | 0.0 | 0.0 | 0.00 | 0.00 | 0.09 | 79 | 1003.0 |
| 20260905043648 | 61 | 135 | 0.0 | 0.0 | 0.00 | 0.00 | 0.09 | 79 | 1002.8 |
| 20260905043147 | 60 | 0 | 0.0 | 0.0 | 0.00 | 0.00 | 0.09 | 79 | 1002.8 |
| 20260905042646 | 61 | 0 | 0.0 | 0.0 | 0.00 | 0.00 | 0.09 | 80 | 1002.7 |
| 20260905042145 | 61 | 157 | 0.0 | 0.0 | 0.00 | 0.00 | 0.09 | 80 | 1002.6 |
| 20260905041644 | 61 | 157 | 0.0 | 0.0 | 0.00 | 0.00 | 0.09 | 80 | 1002.4 |
| 20260905041144 | 61 | 135 | 0.0 | 0.0 | 0.00 | 0.00 | 0.09 | 81 | 1002.4 |
| 20260905040619 | 61 | 270 | 0.0 | 0.0 | 0.00 | 0.00 | 0.09 | 82 | 1002.1 |
| 20260905035808 | 61 | 270 | 0.0 | 0.0 | 0.00 | 0.00 | 0.09 | 83 | 1002.0 |
| 20260905035307 | 61 | 0 | 1.7 | 0.0 | 0.00 | 0.00 | 0.09 | 83 | 1002.0 |
| 20260905034806 | 61 | 225 | 0.0 | 0.0 | 0.00 | 0.00 | 0.09 | 84 | 1002.1 |
| 20260905034305 | 61 | 225 | 0.0 | 0.0 | 0.00 | 0.00 | 0.09 | 84 | 1002.0 |
| 20260905033804 | 61 | 225 | 0.0 | 0.0 | 0.00 | 0.00 | 0.09 | 85 | 1002.0 |
| 20260905033303 | 60 | 292 | 0.0 | 0.0 | 0.00 | 0.00 | 0.09 | 85 | 1002.0 |
| 20260905032802 | 60 | 180 | 0.0 | 0.0 | 0.00 | 0.00 | 0.09 | 85 | 1001.9 |
| 20260905032301 | 60 | 337 | 0.0 | 0.0 | 0.00 | 0.00 | 0.09 | 85 | 1001.9 |
| 20260905031800 | 60 | 202 | 0.0 | 0.0 | 0.00 | 0.00 | 0.09 | 85 | 1001.9 |
| 20260905031259 | 60 | 157 | 0.0 | 0.0 | 0.00 | 0.00 | 0.09 | 85 | 1002.0 |
| 20260905030758 | 60 | 225 | 0.0 | 0.0 | 0.00 | 0.00 | 0.09 | 85 | 1001.9 |
| 20260905030258 | 60 | 225 | 0.0 | 0.0 | 0.00 | 0.00 | 0.09 | 85 | 1001.8 |
| 20260905025757 | 60 | 157 | 0.0 | 0.0 | 0.00 | 0.00 | 0.12 | 84 | 1001.8 |
| 20260905025256 | 60 | 112 | 0.0 | 0.0 | 0.00 | 0.00 | 0.12 | 84 | 1001.7 |
| 20260905024755 | 60 | 225 | 0.0 | 0.0 | 0.00 | 0.00 | 0.12 | 84 | 1001.8 |
| 20260905024254 | 60 | 180 | 0.0 | 0.0 | 0.00 | 0.00 | 0.12 | 83 | 1001.8 |
| 20260905023753 | 61 | 247 | 0.0 | 0.0 | 0.00 | 0.00 | 0.12 | 83 | 1001.8 |
| 20260905023252 | 61 | 270 | 3.5 | 0.0 | 0.00 | 0.00 | 0.12 | 82 | 1001.6 |
| 20260905022751 | 61 | 315 | 0.0 | 0.0 | 0.00 | 0.00 | 0.12 | 81 | 1001.6 |
| 20260905022250 | 61 | 180 | 0.0 | 0.0 | 0.00 | 0.00 | 0.12 | 81 | 1001.6 |
| 20260905021750 | 62 | 202 | 0.0 | 0.0 | 0.00 | 0.00 | 0.12 | 79 | 1001.8 |
| 20260905020829 | 62 | 247 | 7.0 | 0.0 | 0.00 | 0.00 | 0.12 | 78 | 1001.6 |
| 20260905020254 | 62 | 247 | 0.0 | 0.0 | 0.00 | 0.00 | 0.12 | 78 | 1001.7 |
| 20260905015753 | 62 | 225 | 0.0 | 0.0 | 0.00 | 0.00 | 0.12 | 78 | 1001.8 |
| 20260905015252 | 62 | 225 | 0.0 | 0.0 | 0.00 | 0.00 | 0.12 | 78 | 1001.8 |
| 20260905014751 | 62 | 247 | 0.0 | 0.0 | 0.00 | 0.00 | 0.12 | 78 | 1001.7 |
| 20260905014250 | 63 | 270 | 0.0 | 0.0 | 0.00 | 0.00 | 0.12 | 78 | 1001.7 |
| 20260905013749 | 63 | 225 | 0.0 | 0.0 | 0.00 | 0.00 | 0.12 | 78 | 1001.5 |
| 20260905013248 | 63 | 157 | 0.0 | 0.0 | 0.00 | 0.00 | 0.12 | 77 | 1001.3 |
| 20260905012747 | 63 | 22 | 0.0 | 0.0 | 0.00 | 0.00 | 0.12 | 77 | 1001.3 |
| 20260905012246 | 63 | 22 | 0.0 | 0.0 | 0.00 | 0.00 | 0.12 | 77 | 1001.3 |
| 20260905011745 | 63 | 202 | 0.0 | 0.0 | 0.00 | 0.00 | 0.12 | 77 | 1001.4 |
| 20260905011244 | 63 | 135 | 0.9 | 0.0 | 0.00 | 0.00 | 0.12 | 76 | 1001.3 |